This demonstration page uses our WeatherBlox Daily Observations layout. Learn more.

Left ArrowRight Arrow

Hourly Observations for November 25, 2021

Temp ( °F °C ) Dew Point ( °F °C ) Humidity (%) Winds ( mph kmh ) Pressure ( in mb ) Visibility ( mi km ) Precip ( " mm )
12:51 am 00:51 Cloudy 49 9.4 43 6.1 80 80 NW 6 9 30.10 1019 10 16 0.00 0.00
1:51 am 01:51 Mostly Cloudy 50 10 44 6.7 80 80 Calm 30.11 1020 10 16 0.00 0.00
2:51 am 02:51 Cloudy 51 10.6 44 6.7 77 77 N 6 9 30.11 1020 10 16 0.00 0.00
3:51 am 03:51 Mostly Cloudy 49 9.4 46 7.8 90 90 S 3 6 30.13 1020 10 16 0.00 0.00
4:51 am 04:51 Cloudy 50 10 44 6.7 80 80 W 5 7 30.15 1021 10 16 0.00 0.00
5:51 am 05:51 Cloudy 48 8.9 38 3.3 68 68 WNW 6 9 30.19 1022 10 16 0.00 0.00
6:51 am 06:51 Cloudy 47 8.3 36 2.2 66 66 WNW 3 6 30.22 1024 10 16 0.00 0.00
7:51 am 07:51 Cloudy 48 8.9 35 1.7 61 61 NE 3 6 30.27 1025 10 16 0.00 0.00
8:51 am 08:51 Cloudy 47 8.3 41 5 80 80 SSE 3 6 30.31 1026 10 16 0.00 0.00
9:51 am 09:51 Cloudy 50 10 40 4.4 68 68 ESE 6 9 30.33 1027 10 16 0.00 0.00
10:51 am 10:51 Mostly Cloudy 52 11.1 44 6.7 75 75 S 18 30 30.34 1027 10 16 0.00 0.00
11:51 am 11:51 Mostly Sunny 54 12.2 43 6.1 67 67 SSE 24 39 30.31 1026 10 16 0.00 0.00
12:51 pm 12:51 Cloudy 56 13.3 40 4.4 55 55 S 16 26 30.29 1026 10 16 0.00 0.00
1:51 pm 13:51 Cloudy 57 13.9 38 3.3 49 49 SSE 15 24 30.27 1025 10 16 0.00 0.00
2:51 pm 14:51 Mostly Cloudy 57 13.9 39 3.9 51 51 S 20 31 30.26 1025 10 16 0.00 0.00
3:51 pm 15:51 Sunny 57 13.9 38 3.3 49 49 S 17 28 30.27 1025 10 16 0.00 0.00
4:51 pm 16:51 Sunny 52 11.1 39 3.9 61 61 S 16 26 30.29 1026 10 16 0.00 0.00
5:51 pm 17:51 Mostly Cloudy 50 10 38 3.3 63 63 SSE 14 22 30.32 1027 10 16 0.00 0.00
6:51 pm 18:51 Cloudy 50 10 38 3.3 63 63 S 9 15 30.32 1027 10 16 0.00 0.00
7:51 pm 19:51 Clear 47 8.3 38 3.3 71 71 ESE 5 7 30.33 1027 10 16 0.00 0.00
8:51 pm 20:51 Clear 46 7.8 37 2.8 71 71 E 7 11 30.34 1028 10 16 0.00 0.00
9:51 pm 21:51 Cloudy 48 8.9 37 2.8 66 66 E 5 7 30.33 1027 10 16 0.00 0.00
10:51 pm 22:51 Mostly Cloudy 45 7.2 36 2.2 71 71 SE 6 9 30.34 1027 10 16 0.00 0.00
11:51 pm 23:51 Mostly Cloudy 44 6.7 36 2.2 73 73 E 6 9 30.33 1027 10 16 0.00 0.00

Powered by AerisWeather